"Sample Date","Sample Time","Sample Value","Units","Flow Rate","Sample Interval","Number Channels","Micron Size 0","Counts/Channel 0","Micron Size 1","Counts/Channel 1","Micron Size 2","Counts/Channel 2","Micron Size 3","Counts/Channel 3","Micron Size 4","Counts/Channel 4","Micron Size 5","Counts/Channel 5","Micron Size 6","Counts/Channel 6","Micron Size 7","Counts/Channel 7","Micron Size 8","Counts/Channel 8","Micron Size 9","Counts/Channel 9","Micron Size 10","Counts/Channel 10","Micron Size 11","Counts/Channel 11","Micron Size 12","Counts/Channel 12","Micron Size 13","Counts/Channel 13","Micron Size 14","Counts/Channel 14","Micron Size 15","Counts/Channel 15","Micron Size 16","Counts/Channel 16","Micron Size 17","Counts/Channel 17","Micron Size 18","Counts/Channel 18","Micron Size 19","Counts/Channel 19","Micron Size 20","Counts/Channel 20","Micron Size 21","Counts/Channel 21","Micron Size 22","Counts/Channel 22","Micron Size 23","Counts/Channel 23","Micron Size 24","Counts/Channel 24","Micron Size 25","Counts/Channel 25","Micron Size 26","Counts/Channel 26","Micron Size 27","Counts/Channel 27","Micron Size 28","Counts/Channel 28","Micron Size 29","Counts/Channel 29","Micron Size 30","Counts/Channel 30","Micron Size 31","Counts/Channel 31"
"03/10/08","05:00:05",13759.000,"cc",28325.551,6.00,6,0.100,9425.000,0.200,1490.000,0.300,1193.000,0.500,1208.000,1.000,443.000,5.000,0
"03/10/08","05:00:11",14010.000,"cc",28285.867,6.00,6,0.100,9437.000,0.200,1567.000,0.300,1201.000,0.500,1294.000,1.000,511.000,5.000,0
"03/10/08","05:00:17",14492.000,"cc",28278.904,6.00,6,0.100,9913.000,0.200,1583.000,0.300,1172.000,0.500,1293.000,1.000,531.000,5.000,0
"03/10/08","05:00:23",14796.000,"cc",28325.486,6.00,6,0.100,9997.000,0.200,1634.000,0.300,1252.000,0.500,1385.000,1.000,528.000,5.000,0
"03/10/08","05:00:29",14634.000,"cc",28346.801,6.00,6,0.100,9846.000,0.200,1640.000,0.300,1305.000,0.500,1352.000,1.000,491.000,5.000,0
"03/10/08","05:00:35",14215.000,"cc",28281.180,6.00,6,0.100,9585.000,0.200,1648.000,0.300,1139.000,0.500,1365.000,1.000,478.000,5.000,0
"03/10/08","05:00:41",14879.000,"cc",28313.426,6.00,6,0.100,9998.000,0.200,1684.000,0.300,1295.000,0.500,1406.000,1.000,496.000,5.000,0
"03/10/08","05:00:47",14827.000,"cc",28365.514,6.00,6,0.100,9956.000,0.200,1642.000,0.300,1330.000,0.500,1376.000,1.000,523.000,5.000,0
"03/10/08","05:00:53",14727.000,"cc",28290.611,6.00,6,0.100,9824.000,0.200,1637.000,0.300,1321.000,0.500,1424.000,1.000,521.000,5.000,0
"03/10/08","05:00:59",15216.000,"cc",28356.045,6.00,6,0.100,10018.000,0.200,1734.000,0.300,1383.000,0.500,1522.000,1.000,559.000,5.000,0
"03/10/08","05:01:05",15061.000,"cc",28395.897,6.00,6,0.100,9969.000,0.200,1709.000,0.300,1391.000,0.500,1435.000,1.000,557.000,5.000,0
"03/10/08","05:01:11",15206.000,"cc",28292.979,6.00,6,0.100,10048.000,0.200,1699.000,0.300,1395.000,0.500,1501.000,1.000,563.000,5.000,0
"03/10/08","05:01:17",15126.000,"cc",28276.092,6.00,6,0.100,10157.000,0.200,1700.000,0.300,1341.000,0.500,1399.000,1.000,529.000,5.000,0
"03/10/08","05:01:23",15112.000,"cc",28278.154,6.00,6,0.100,10172.000,0.200,1744.000,0.300,1240.000,0.500,1407.000,1.000,549.000,5.000,0
"03/10/08","05:01:29",15221.000,"cc",28288.221,6.00,6,0.100,10262.000,0.200,1685.000,0.300,1273.000,0.500,1468.000,1.000,533.000,5.000,0
"03/10/08","05:01:35",14795.000,"cc",28324.160,6.00,6,0.100,9955.000,0.200,1628.000,0.300,1293.000,0.500,1391.000,1.000,528.000,5.000,0
"03/10/08","05:01:41",14791.000,"cc",28304.106,6.00,6,0.100,9880.000,0.200,1704.000,0.300,1300.000,0.500,1368.000,1.000,539.000,5.000,0
"03/10/08","05:01:47",14970.000,"cc",28349.039,6.00,6,0.100,9971.000,0.200,1719.000,0.300,1325.000,0.500,1448.000,1.000,507.000,5.000,0
"03/10/08","05:01:53",14829.000,"cc",28295.385,6.00,6,0.100,9776.000,0.200,1685.000,0.300,1320.000,0.500,1500.000,1.000,548.000,5.000,0
"03/10/08","05:01:59",15128.000,"cc",28267.205,6.00,6,0.100,10048.000,0.200,1692.000,0.300,1394.000,0.500,1445.000,1.000,549.000,5.000,0
"03/10/08","05:02:05",15023.000,"cc",28347.918,6.00,6,0.100,10039.000,0.200,1683.000,0.300,1297.000,0.500,1484.000,1.000,520.000,5.000,0
"03/10/08","05:02:11",15054.000,"cc",28346.109,6.00,6,0.100,9962.000,0.200,1692.000,0.300,1368.000,0.500,1452.000,1.000,580.000,5.000,0
"03/10/08","05:02:17",14868.000,"cc",28286.055,6.00,6,0.100,9948.000,0.200,1664.000,0.300,1292.000,0.500,1410.000,1.000,554.000,5.000,0
"03/10/08","05:02:23",14826.000,"cc",28312.127,6.00,6,0.100,9862.000,0.200,1669.000,0.300,1353.000,0.500,1439.000,1.000,503.000,5.000,0
"03/10/08","05:02:29",14778.000,"cc",28314.012,6.00,6,0.100,9896.000,0.200,1708.000,0.300,1298.000,0.500,1419.000,1.000,457.000,5.000,0
"03/10/08","05:02:35",14206.000,"cc",28285.357,6.00,6,0.100,9669.000,0.200,1533.000,0.300,1220.000,0.500,1325.000,1.000,459.000,5.000,0
"03/10/08","05:02:41",14443.000,"cc",28363.844,6.00,6,0.100,9863.000,0.200,1585.000,0.300,1136.000,0.500,1382.000,1.000,477.000,5.000,0
"03/10/08","05:02:47",14057.000,"cc",28370.369,6.00,6,0.100,9457.000,0.200,1611.000,0.300,1238.000,0.500,1246.000,1.000,505.000,5.000,0
"03/10/08","05:02:53",13685.000,"cc",28351.912,6.00,6,0.100,9371.000,0.200,1489.000,0.300,1069.000,0.500,1256.000,1.000,500.000,5.000,0
"03/10/08","05:02:59",13827.000,"cc",28346.834,6.00,6,0.100,9503.000,0.200,1471.000,0.300,1152.000,0.500,1237.000,1.000,464.000,5.000,0
"03/10/08","05:03:05",13887.000,"cc",28302.440,6.00,6,0.100,9417.000,0.200,1539.000,0.300,1196.000,0.500,1276.000,1.000,459.000,5.000,0
"03/10/08","05:03:11",14023.000,"cc",28248.211,6.00,6,0.100,9437.000,0.200,1493.000,0.300,1285.000,0.500,1335.000,1.000,473.000,5.000,0
"03/10/08","05:03:17",14079.000,"cc",28274.434,6.00,6,0.100,9498.000,0.200,1574.000,0.300,1225.000,0.500,1280.000,1.000,502.000,5.000,0
"03/10/08","05:03:23",14099.000,"cc",28298.914,6.00,6,0.100,9517.000,0.200,1572.000,0.300,1224.000,0.500,1327.000,1.000,459.000,5.000,0
"03/10/08","05:03:29",13743.000,"cc",28265.703,6.00,6,0.100,9339.000,0.200,1499.000,0.300,1152.000,0.500,1271.000,1.000,482.000,5.000,0
"03/10/08","05:03:35",13370.000,"cc",28306.871,6.00,6,0.100,9227.000,0.200,1426.000,0.300,1106.000,0.500,1148.000,1.000,463.000,5.000,0
"03/10/08","05:03:41",13660.000,"cc",28355.752,6.00,6,0.100,9259.000,0.200,1493.000,0.300,1202.000,0.500,1261.000,1.000,445.000,5.000,0
"03/10/08","05:03:47",13841.000,"cc",28278.984,6.00,6,0.100,9344.000,0.200,1530.000,0.300,1201.000,0.500,1313.000,1.000,453.000,5.000,0
"03/10/08","05:03:53",13629.000,"cc",28347.272,6.00,6,0.100,9190.000,0.200,1565.000,0.300,1165.000,0.500,1278.000,1.000,431.000,5.000,0
"03/10/08","05:03:59",13054.000,"cc",28384.850,6.00,6,0.100,9104.000,0.200,1322.000,0.300,1069.000,0.500,1131.000,1.000,428.000,5.000,0
"03/10/08","05:04:05",13297.000,"cc",28391.074,6.00,6,0.100,9123.000,0.200,1462.000,0.300,1092.000,0.500,1196.000,1.000,424.000,5.000,0
"03/10/08","05:04:11",13385.000,"cc",28310.338,6.00,6,0.100,9200.000,0.200,1422.000,0.300,1127.000,0.500,1202.000,1.000,434.000,5.000,0
"03/10/08","05:04:17",12975.000,"cc",28326.561,6.00,6,0.100,9184.000,0.200,1309.000,0.300,1012.000,0.500,1076.000,1.000,394.000,5.000,0
"03/10/08","05:04:23",13016.000,"cc",28281.065,6.00,6,0.100,8960.000,0.200,1410.000,0.300,1078.000,0.500,1149.000,1.000,419.000,5.000,0
"03/10/08","05:04:29",12965.000,"cc",28317.313,6.00,6,0.100,9021.000,0.200,1364.000,0.300,1060.000,0.500,1139.000,1.000,381.000,5.000,0
"03/10/08","05:04:35",13241.000,"cc",28342.016,6.00,6,0.100,9065.000,0.200,1395.000,0.300,1168.000,0.500,1158.000,1.000,455.000,5.000,0
"03/10/08","05:04:41",13323.000,"cc",28333.301,6.00,6,0.100,9166.000,0.200,1480.000,0.300,1076.000,0.500,1180.000,1.000,421.000,5.000,0
"03/10/08","05:04:47",12920.000,"cc",28299.859,6.00,6,0.100,8890.000,0.200,1394.000,0.300,1066.000,0.500,1135.000,1.000,435.000,5.000,0
"03/10/08","05:04:53",13133.000,"cc",28365.057,6.00,6,0.100,9073.000,0.200,1418.000,0.300,1068.000,0.500,1150.000,1.000,424.000,5.000,0
"03/10/08","05:04:59",12916.000,"cc",28299.156,6.00,6,0.100,8906.000,0.200,1423.000,0.300,1011.000,0.500,1115.000,1.000,461.000,5.000,0
"03/10/08","05:05:05",12736.000,"cc",28313.074,6.00,6,0.100,8858.000,0.200,1401.000,0.300,1012.000,0.500,1107.000,1.000,358.000,5.000,0
"03/10/08","05:05:11",12888.000,"cc",28292.260,6.00,6,0.100,8948.000,0.200,1374.000,0.300,1050.000,0.500,1124.000,1.000,392.000,5.000,0
"03/10/08","05:05:17",12893.000,"cc",28272.871,6.00,6,0.100,8948.000,0.200,1405.000,0.300,1049.000,0.500,1116.000,1.000,375.000,5.000,0
"03/10/08","05:05:23",13118.000,"cc",28257.467,6.00,6,0.100,8989.000,0.200,1423.000,0.300,1107.000,0.500,1170.000,1.000,429.000,5.000,0
"03/10/08","05:05:29",13030.000,"cc",28350.963,6.00,6,0.100,8845.000,0.200,1437.000,0.300,1103.000,0.500,1188.000,1.000,457.000,5.000,0
"03/10/08","05:05:35",13364.000,"cc",28309.457,6.00,6,0.100,9032.000,0.200,1511.000,0.300,1167.000,0.500,1203.000,1.000,451.000,5.000,0
"03/10/08","05:05:41",12927.000,"cc",28298.647,6.00,6,0.100,9039.000,0.200,1360.000,0.300,1046.000,0.500,1068.000,1.000,414.000,5.000,0
"03/10/08","05:05:47",12651.000,"cc",28369.967,6.00,6,0.100,8833.000,0.200,1337.000,0.300,996.000,0.500,1079.000,1.000,406.000,5.000,0
"03/10/08","05:05:53",12620.000,"cc",28370.072,6.00,6,0.100,8829.000,0.200,1309.000,0.300,1009.000,0.500,1119.000,1.000,354.000,5.000,0
"03/10/08","05:05:59",12452.000,"cc",28355.533,6.00,6,0.100,8760.000,0.200,1287.000,0.300,972.000,0.500,1050.000,1.000,383.000,5.000,0
"03/10/08","05:06:05",12647.000,"cc",28311.305,6.00,6,0.100,8801.000,0.200,1390.000,0.300,1022.000,0.500,1015.000,1.000,419.000,5.000,0
"03/10/08","05:06:11",12682.000,"cc",28307.670,6.00,6,0.100,8854.000,0.200,1365.000,0.300,993.000,0.500,1046.000,1.000,424.000,5.000,0
"03/10/08","05:06:17",12673.000,"cc",28264.750,6.00,6,0.100,8823.000,0.200,1314.000,0.300,1054.000,0.500,1113.000,1.000,369.000,5.000,0
"03/10/08","05:06:23",12815.000,"cc",28302.459,6.00,6,0.100,8818.000,0.200,1403.000,0.300,1046.000,0.500,1144.000,1.000,404.000,5.000,0
"03/10/08","05:06:29",13105.000,"cc",28364.770,6.00,6,0.100,8977.000,0.200,1471.000,0.300,1096.000,0.500,1125.000,1.000,436.000,5.000,0
"03/10/08","05:06:35",13058.000,"cc",28298.541,6.00,6,0.100,8987.000,0.200,1378.000,0.300,1028.000,0.500,1244.000,1.000,421.000,5.000,0
"03/10/08","05:06:41",13162.000,"cc",28347.188,6.00,6,0.100,8969.000,0.200,1438.000,0.300,1042.000,0.500,1251.000,1.000,462.000,5.000,0
"03/10/08","05:06:47",13394.000,"cc",28291.963,6.00,6,0.100,9238.000,0.200,1452.000,0.300,1100.000,0.500,1186.000,1.000,418.000,5.000,0
"03/10/08","05:06:53",13176.000,"cc",28266.520,6.00,6,0.100,8981.000,0.200,1440.000,0.300,1099.000,0.500,1229.000,1.000,427.000,5.000,0
"03/10/08","05:06:59",13326.000,"cc",28333.070,6.00,6,0.100,9196.000,0.200,1443.000,0.300,1086.000,0.500,1193.000,1.000,408.000,5.000,0
"03/10/08","05:07:05",13525.000,"cc",28287.195,6.00,6,0.100,9188.000,0.200,1515.000,0.300,1161.000,0.500,1234.000,1.000,427.000,5.000,0
"03/10/08","05:07:11",13247.000,"cc",28327.772,6.00,6,0.100,9027.000,0.200,1467.000,0.300,1132.000,0.500,1204.000,1.000,417.000,5.000,0
"03/10/08","05:07:17",13092.000,"cc",28250.055,6.00,6,0.100,8993.000,0.200,1444.000,0.300,1106.000,0.500,1140.000,1.000,409.000,5.000,0
"03/10/08","05:07:23",13774.000,"cc",28265.328,6.00,6,0.100,9432.000,0.200,1451.000,0.300,1184.000,0.500,1273.000,1.000,434.000,5.000,0
"03/10/08","05:07:29",13451.000,"cc",28304.004,6.00,6,0.100,9159.000,0.200,1496.000,0.300,1096.000,0.500,1241.000,1.000,459.000,5.000,0
"03/10/08","05:07:35",13685.000,"cc",28362.078,6.00,6,0.100,9254.000,0.200,1579.000,0.300,1157.000,0.500,1230.000,1.000,465.000,5.000,0
"03/10/08","05:07:41",13780.000,"cc",28311.586,6.00,6,0.100,9289.000,0.200,1515.000,0.300,1217.000,0.500,1270.000,1.000,489.000,5.000,0
"03/10/08","05:07:47",13668.000,"cc",28312.455,6.00,6,0.100,9177.000,0.200,1509.000,0.300,1191.000,0.500,1301.000,1.000,490.000,5.000,0
"03/10/08","05:07:53",13566.000,"cc",28282.936,6.00,6,0.100,9273.000,0.200,1474.000,0.300,1101.000,0.500,1275.000,1.000,443.000,5.000,0
"03/10/08","05:07:59",13451.000,"cc",28358.522,6.00,6,0.100,9107.000,0.200,1443.000,0.300,1219.000,0.500,1238.000,1.000,444.000,5.000,0
"03/10/08","05:08:05",13954.000,"cc",28350.551,6.00,6,0.100,9310.000,0.200,1661.000,0.300,1226.000,0.500,1287.000,1.000,470.000,5.000,0
"03/10/08","05:08:11",13843.000,"cc",28282.631,6.00,6,0.100,9298.000,0.200,1526.000,0.300,1207.000,0.500,1306.000,1.000,506.000,5.000,0
"03/10/08","05:08:17",13937.000,"cc",28386.309,6.00,6,0.100,9515.000,0.200,1562.000,0.300,1175.000,0.500,1213.000,1.000,472.000,5.000,0
"03/10/08","05:08:23",13903.000,"cc",28298.070,6.00,6,0.100,9372.000,0.200,1531.000,0.300,1214.000,0.500,1312.000,1.000,474.000,5.000,0
"03/10/08","05:08:29",13910.000,"cc",28334.471,6.00,6,0.100,9439.000,0.200,1492.000,0.300,1206.000,0.500,1272.000,1.000,501.000,5.000,0
"03/10/08","05:08:35",13816.000,"cc",28292.979,6.00,6,0.100,9428.000,0.200,1492.000,0.300,1132.000,0.500,1332.000,1.000,432.000,5.000,0
"03/10/08","05:08:41",13668.000,"cc",28265.147,6.00,6,0.100,9269.000,0.200,1517.000,0.300,1173.000,0.500,1261.000,1.000,448.000,5.000,0
"03/10/08","05:08:47",13897.000,"cc",28283.246,6.00,6,0.100,9255.000,0.200,1678.000,0.300,1241.000,0.500,1231.000,1.000,492.000,5.000,0
"03/10/08","05:08:53",13772.000,"cc",28388.207,6.00,6,0.100,9376.000,0.200,1485.000,0.300,1179.000,0.500,1278.000,1.000,454.000,5.000,0
"03/10/08","05:08:59",13814.000,"cc",28310.000,6.00,6,0.100,9274.000,0.200,1605.000,0.300,1170.000,0.500,1272.000,1.000,493.000,5.000,0
"03/10/08","05:09:05",13923.000,"cc",28264.527,6.00,6,0.100,9387.000,0.200,1579.000,0.300,1232.000,0.500,1234.000,1.000,491.000,5.000,0
"03/10/08","05:09:11",13778.000,"cc",28335.055,6.00,6,0.100,9308.000,0.200,1530.000,0.300,1215.000,0.500,1275.000,1.000,450.000,5.000,0
"03/10/08","05:09:17",13921.000,"cc",28356.471,6.00,6,0.100,9457.000,0.200,1502.000,0.300,1154.000,0.500,1326.000,1.000,481.000,5.000,1.000
"03/10/08","05:09:23",13789.000,"cc",28341.121,6.00,6,0.100,9292.000,0.200,1539.000,0.300,1228.000,0.500,1254.000,1.000,476.000,5.000,0
"03/10/08","05:09:29",13916.000,"cc",28337.176,6.00,6,0.100,9425.000,0.200,1536.000,0.300,1206.000,0.500,1290.000,1.000,459.000,5.000,0
"03/10/08","05:09:35",13738.000,"cc",28245.662,6.00,6,0.100,9334.000,0.200,1443.000,0.300,1155.000,0.500,1346.000,1.000,460.000,5.000,0
"03/10/08","05:09:41",14121.000,"cc",28324.811,6.00,6,0.100,9450.000,0.200,1548.000,0.300,1289.000,0.500,1351.000,1.000,483.000,5.000,0
"03/10/08","05:09:47",14149.000,"cc",28330.043,6.00,6,0.100,9516.000,0.200,1604.000,0.300,1203.000,0.500,1328.000,1.000,498.000,5.000,0
"03/10/08","05:09:53",13601.000,"cc",28251.170,6.00,6,0.100,9273.000,0.200,1511.000,0.300,1160.000,0.500,1223.000,1.000,434.000,5.000,0
"03/10/08","05:09:59",13596.000,"cc",28291.475,6.00,6,0.100,9260.000,0.200,1548.000,0.300,1170.000,0.500,1220.000,1.000,398.000,5.000,0
"03/10/08","05:10:05",13906.000,"cc",28318.238,6.00,6,0.100,9405.000,0.200,1529.000,0.300,1239.000,0.500,1273.000,1.000,460.000,5.000,0
"03/10/08","05:10:11",14047.000,"cc",28328.936,6.00,6,0.100,9420.000,0.200,1587.000,0.300,1241.000,0.500,1348.000,1.000,451.000,5.000,0
"03/10/08","05:10:17",14160.000,"cc",28386.904,6.00,6,0.100,9491.000,0.200,1592.000,0.300,1203.000,0.500,1371.000,1.000,503.000,5.000,0
"03/10/08","05:10:23",14100.000,"cc",28328.232,6.00,6,0.100,9455.000,0.200,1581.000,0.300,1242.000,0.500,1314.000,1.000,508.000,5.000,0
"03/10/08","05:10:29",14061.000,"cc",28345.615,6.00,6,0.100,9388.000,0.200,1618.000,0.300,1223.000,0.500,1355.000,1.000,477.000,5.000,0
"03/10/08","05:10:35",14009.000,"cc",28319.043,6.00,6,0.100,9497.000,0.200,1516.000,0.300,1190.000,0.500,1324.000,1.000,482.000,5.000,0
"03/10/08","05:10:41",14106.000,"cc",28299.176,6.00,6,0.100,9515.000,0.200,1544.000,0.300,1259.000,0.500,1329.000,1.000,459.000,5.000,0
"03/10/08","05:10:47",14338.000,"cc",28317.410,6.00,6,0.100,9651.000,0.200,1619.000,0.300,1212.000,0.500,1389.000,1.000,467.000,5.000,0
"03/10/08","05:10:53",14382.000,"cc",28326.334,6.00,6,0.100,9596.000,0.200,1649.000,0.300,1250.000,0.500,1368.000,1.000,519.000,5.000,0
"03/10/08","05:10:59",14464.000,"cc",28314.291,6.00,6,0.100,9563.000,0.200,1617.000,0.300,1293.000,0.500,1445.000,1.000,546.000,5.000,0
"03/10/08","05:11:05",14576.000,"cc",28310.186,6.00,6,0.100,9693.000,0.200,1626.000,0.300,1306.000,0.500,1427.000,1.000,524.000,5.000,0
"03/10/08","05:11:11",14269.000,"cc",28297.748,6.00,6,0.100,9588.000,0.200,1601.000,0.300,1268.000,0.500,1335.000,1.000,477.000,5.000,0
"03/10/08","05:11:17",14339.000,"cc",28300.231,6.00,6,0.100,9615.000,0.200,1584.000,0.300,1268.000,0.500,1342.000,1.000,530.000,5.000,0
"03/10/08","05:11:23",14233.000,"cc",28307.908,6.00,6,0.100,9602.000,0.200,1603.000,0.300,1215.000,0.500,1344.000,1.000,469.000,5.000,0
"03/10/08","05:11:29",14067.000,"cc",28345.123,6.00,6,0.100,9525.000,0.200,1506.000,0.300,1215.000,0.500,1313.000,1.000,508.000,5.000,0
"03/10/08","05:11:35",14011.000,"cc",28280.166,6.00,6,0.100,9426.000,0.200,1554.000,0.300,1241.000,0.500,1339.000,1.000,451.000,5.000,0
"03/10/08","05:11:41",14347.000,"cc",28336.402,6.00,6,0.100,9551.000,0.200,1660.000,0.300,1272.000,0.500,1358.000,1.000,506.000,5.000,0
"03/10/08","05:11:47",14076.000,"cc",28337.943,6.00,6,0.100,9523.000,0.200,1538.000,0.300,1206.000,0.500,1321.000,1.000,488.000,5.000,0
"03/10/08","05:11:53",14206.000,"cc",28319.344,6.00,6,0.100,9511.000,0.200,1547.000,0.300,1276.000,0.500,1374.000,1.000,498.000,5.000,0
"03/10/08","05:11:59",14217.000,"cc",28336.723,6.00,6,0.100,9541.000,0.200,1600.000,0.300,1248.000,0.500,1328.000,1.000,500.000,5.000,0
"03/10/08","05:12:05",13974.000,"cc",28369.676,6.00,6,0.100,9399.000,0.200,1505.000,0.300,1210.000,0.500,1388.000,1.000,472.000,5.000,0
"03/10/08","05:12:11",13829.000,"cc",28317.090,6.00,6,0.100,9233.000,0.200,1574.000,0.300,1176.000,0.500,1353.000,1.000,493.000,5.000,0
"03/10/08","05:12:17",13703.000,"cc",28274.981,6.00,6,0.100,9394.000,0.200,1488.000,0.300,1138.000,0.500,1210.000,1.000,473.000,5.000,0
"03/10/08","05:12:23",12849.000,"cc",28350.590,6.00,6,0.100,8951.000,0.200,1403.000,0.300,946.000,0.500,1158.000,1.000,391.000,5.000,0
"03/10/08","05:12:29",13616.000,"cc",28339.539,6.00,6,0.100,9365.000,0.200,1426.000,0.300,1116.000,0.500,1219.000,1.000,490.000,5.000,0
"03/10/08","05:12:35",13915.000,"cc",28277.422,6.00,6,0.100,9429.000,0.200,1525.000,0.300,1318.000,0.500,1200.000,1.000,443.000,5.000,0
"03/10/08","05:12:41",13955.000,"cc",28246.772,6.00,6,0.100,9434.000,0.200,1610.000,0.300,1169.000,0.500,1276.000,1.000,466.000,5.000,0
"03/10/08","05:12:47",13790.000,"cc",28323.393,6.00,6,0.100,9300.000,0.200,1510.000,0.300,1178.000,0.500,1302.000,1.000,500.000,5.000,0
"03/10/08","05:12:53",13349.000,"cc",28334.184,6.00,6,0.100,9286.000,0.200,1448.000,0.300,1021.000,0.500,1176.000,1.000,418.000,5.000,0
"03/10/08","05:12:59",13323.000,"cc",28379.223,6.00,6,0.100,9288.000,0.200,1427.000,0.300,1055.000,0.500,1136.000,1.000,417.000,5.000,0
"03/10/08","05:13:05",13625.000,"cc",28291.707,6.00,6,0.100,9589.000,0.200,1433.000,0.300,1043.000,0.500,1161.000,1.000,399.000,5.000,0
"03/10/08","05:13:11",13090.000,"cc",28322.320,6.00,6,0.100,9045.000,0.200,1408.000,0.300,1088.000,0.500,1126.000,1.000,423.000,5.000,0
"03/10/08","05:13:17",13373.000,"cc",28365.268,6.00,6,0.100,9216.000,0.200,1413.000,0.300,1070.000,0.500,1223.000,1.000,451.000,5.000,0
"03/10/08","05:13:23",13964.000,"cc",28269.596,6.00,6,0.100,9605.000,0.200,1493.000,0.300,1181.000,0.500,1240.000,1.000,445.000,5.000,0
"03/10/08","05:13:29",13264.000,"cc",28364.131,6.00,6,0.100,9149.000,0.200,1410.000,0.300,1118.000,0.500,1165.000,1.000,422.000,5.000,0
"03/10/08","05:13:35",12999.000,"cc",28353.707,6.00,6,0.100,9132.000,0.200,1389.000,0.300,993.000,0.500,1096.000,1.000,389.000,5.000,0
"03/10/08","05:13:41",13106.000,"cc",28300.918,6.00,6,0.100,9162.000,0.200,1391.000,0.300,1086.000,0.500,1078.000,1.000,389.000,5.000,0
"03/10/08","05:13:47",13625.000,"cc",28307.682,6.00,6,0.100,9282.000,0.200,1425.000,0.300,1213.000,0.500,1245.000,1.000,460.000,5.000,0
"03/10/08","05:13:53",13144.000,"cc",28275.895,6.00,6,0.100,9031.000,0.200,1380.000,0.300,1118.000,0.500,1200.000,1.000,415.000,5.000,0
"03/10/08","05:13:59",13307.000,"cc",28275.615,6.00,6,0.100,9285.000,0.200,1476.000,0.300,1047.000,0.500,1109.000,1.000,390.000,5.000,0
"03/10/08","05:14:05",13144.000,"cc",28368.092,6.00,6,0.100,9176.000,0.200,1395.000,0.300,1017.000,0.500,1118.000,1.000,438.000,5.000,0
"03/10/08","05:14:11",12713.000,"cc",28259.408,6.00,6,0.100,8968.000,0.200,1327.000,0.300,961.000,0.500,1044.000,1.000,413.000,5.000,0
"03/10/08","05:14:17",13013.000,"cc",28319.889,6.00,6,0.100,9050.000,0.200,1366.000,0.300,1037.000,0.500,1155.000,1.000,405.000,5.000,0
"03/10/08","05:14:23",13281.000,"cc",28348.104,6.00,6,0.100,9255.000,0.200,1404.000,0.300,1108.000,0.500,1125.000,1.000,389.000,5.000,0
"03/10/08","05:14:29",13076.000,"cc",28306.820,6.00,6,0.100,9076.000,0.200,1433.000,0.300,1044.000,0.500,1111.000,1.000,412.000,5.000,0
"03/10/08","05:14:35",13022.000,"cc",28301.023,6.00,6,0.100,9135.000,0.200,1374.000,0.300,1053.000,0.500,1061.000,1.000,399.000,5.000,0
"03/10/08","05:14:41",13420.000,"cc",28394.180,6.00,6,0.100,9292.000,0.200,1439.000,0.300,1063.000,0.500,1188.000,1.000,438.000,5.000,0
"03/10/08","05:14:47",13448.000,"cc",28347.508,6.00,6,0.100,9258.000,0.200,1480.000,0.300,1100.000,0.500,1175.000,1.000,435.000,5.000,0
"03/10/08","05:14:53",13747.000,"cc",28223.209,6.00,6,0.100,9468.000,0.200,1484.000,0.300,1140.000,0.500,1217.000,1.000,438.000,5.000,0
"03/10/08","05:14:59",13748.000,"cc",28296.352,6.00,6,0.100,9439.000,0.200,1476.000,0.300,1194.000,0.500,1209.000,1.000,430.000,5.000,0
"03/10/08","05:15:05",13736.000,"cc",28244.303,6.00,6,0.100,9318.000,0.200,1547.000,0.300,1117.000,0.500,1299.000,1.000,455.000,5.000,0
"03/10/08","05:15:11",13547.000,"cc",28368.154,6.00,6,0.100,9341.000,0.200,1459.000,0.300,1085.000,0.500,1213.000,1.000,449.000,5.000,0
"03/10/08","05:15:17",13364.000,"cc",28343.164,6.00,6,0.100,9260.000,0.200,1441.000,0.300,1088.000,0.500,1124.000,1.000,451.000,5.000,0
"03/10/08","05:15:23",13341.000,"cc",28373.012,6.00,6,0.100,9200.000,0.200,1493.000,0.300,1025.000,0.500,1186.000,1.000,437.000,5.000,0
"03/10/08","05:15:29",13609.000,"cc",28346.510,6.00,6,0.100,9359.000,0.200,1452.000,0.300,1128.000,0.500,1223.000,1.000,447.000,5.000,0
"03/10/08","05:15:35",13408.000,"cc",28365.668,6.00,6,0.100,9284.000,0.200,1457.000,0.300,1055.000,0.500,1189.000,1.000,423.000,5.000,0
"03/10/08","05:15:41",13126.000,"cc",28283.965,6.00,6,0.100,9133.000,0.200,1372.000,0.300,1092.000,0.500,1123.000,1.000,406.000,5.000,0
"03/10/08","05:15:47",13133.000,"cc",28266.022,6.00,6,0.100,9054.000,0.200,1407.000,0.300,1103.000,0.500,1178.000,1.000,391.000,5.000,0
"03/10/08","05:15:53",13374.000,"cc",28278.543,6.00,6,0.100,9284.000,0.200,1446.000,0.300,1079.000,0.500,1155.000,1.000,410.000,5.000,0
"03/10/08","05:15:59",13513.000,"cc",28363.582,6.00,6,0.100,9445.000,0.200,1390.000,0.300,1068.000,0.500,1165.000,1.000,445.000,5.000,0
"03/10/08","05:16:05",13278.000,"cc",28330.672,6.00,6,0.100,9245.000,0.200,1416.000,0.300,1075.000,0.500,1126.000,1.000,416.000,5.000,0
"03/10/08","05:16:11",12687.000,"cc",28353.443,6.00,6,0.100,8962.000,0.200,1335.000,0.300,971.000,0.500,1055.000,1.000,364.000,5.000,0
"03/10/08","05:16:17",12884.000,"cc",28358.758,6.00,6,0.100,9092.000,0.200,1334.000,0.300,1019.000,0.500,1052.000,1.000,387.000,5.000,0
"03/10/08","05:16:23",12704.000,"cc",28315.848,6.00,6,0.100,8915.000,0.200,1370.000,0.300,1035.000,0.500,1010.000,1.000,374.000,5.000,0
"03/10/08","05:16:29",12759.000,"cc",28279.957,6.00,6,0.100,9102.000,0.200,1335.000,0.300,884.000,0.500,1061.000,1.000,377.000,5.000,0